| time (UTC) | temp C | wind direction | speed KPH | gust KPH | rain 1hr cm | rain 24hr cm | rain mn cm | humidity % | barometer mb |
| 20260508040009 | 2 | 208 | 1.6 | 4.8 | 0.00 | 0.00 | 0.00 | 89 | 1012.0 |
| 20260508035509 | 2 | 209 | 1.6 | 8.0 | 0.00 | 0.00 | 0.00 | 90 | 1012.1 |
| 20260508035009 | 2 | 232 | 1.6 | 8.0 | 0.00 | 0.00 | 0.00 | 89 | 1012.0 |
| 20260508034508 | 2 | 270 | 1.6 | 3.2 | 0.00 | 0.00 | 0.00 | 89 | 1012.0 |
| 20260508034009 | 2 | 270 | 0.0 | 3.2 | 0.00 | 0.00 | 0.00 | 88 | 1012.1 |
| 20260508033509 | 2 | 0 | 0.0 | 0.0 | 0.00 | 0.00 | 0.00 | 88 | 1012.0 |
| 20260508033009 | 2 | 0 | 0.0 | 0.0 | 0.00 | 0.00 | 0.00 | 87 | 1012.0 |
| 20260508032509 | 2 | 0 | 0.0 | 0.0 | 0.00 | 0.00 | 0.00 | 87 | 1012.1 |
| 20260508031509 | 3 | 270 | 0.0 | 3.2 | 0.00 | 0.00 | 0.00 | 85 | 1011.9 |
| 20260508031009 | 3 | 270 | 0.0 | 3.2 | 0.00 | 0.00 | 0.00 | 85 | 1012.0 |
| 20260508030508 | 3 | 270 | 0.0 | 3.2 | 0.00 | 0.00 | 0.00 | 84 | 1012.0 |
| 20260508030009 | 3 | 270 | 0.0 | 1.6 | 0.00 | 0.00 | 0.00 | 83 | 1012.0 |
| 20260508025508 | 3 | 270 | 0.0 | 1.6 | 0.00 | 0.00 | 0.00 | 83 | 1012.0 |
| 20260508025009 | 3 | 270 | 0.0 | 3.2 | 0.00 | 0.00 | 0.00 | 82 | 1012.1 |
| 20260508024508 | 3 | 270 | 0.0 | 3.2 | 0.00 | 0.00 | 0.00 | 82 | 1012.1 |
| 20260508024009 | 3 | 270 | 0.0 | 1.6 | 0.00 | 0.00 | 0.00 | 81 | 1012.2 |
| 20260508023509 | 3 | 270 | 0.0 | 3.2 | 0.00 | 0.00 | 0.00 | 79 | 1012.1 |
| 20260508023008 | 3 | 270 | 0.0 | 4.8 | 0.00 | 0.00 | 0.00 | 79 | 1012.1 |
| 20260508022509 | 3 | 270 | 1.6 | 4.8 | 0.00 | 0.00 | 0.00 | 78 | 1012.0 |
| 20260508022008 | 3 | 270 | 1.6 | 4.8 | 0.00 | 0.00 | 0.00 | 77 | 1012.0 |
| 20260508021509 | 4 | 270 | 1.6 | 4.8 | 0.00 | 0.00 | 0.00 | 76 | 1012.0 |
| 20260508021009 | 4 | 270 | 1.6 | 4.8 | 0.00 | 0.00 | 0.00 | 76 | 1011.9 |
| 20260508020508 | 5 | 271 | 3.2 | 4.8 | 0.00 | 0.00 | 0.00 | 74 | 1011.9 |
| 20260508020009 | 5 | 273 | 3.2 | 4.8 | 0.00 | 0.00 | 0.00 | 74 | 1011.9 |
| 20260508015509 | 5 | 274 | 1.6 | 4.8 | 0.00 | 0.00 | 0.00 | 73 | 1011.9 |
| 20260508014008 | 6 | 274 | 3.2 | 4.8 | 0.00 | 0.00 | 0.00 | 70 | 1011.9 |
| 20260508013509 | 6 | 275 | 3.2 | 4.8 | 0.00 | 0.00 | 0.00 | 70 | 1011.9 |
| 20260508013009 | 6 | 275 | 3.2 | 4.8 | 0.00 | 0.00 | 0.00 | 68 | 1011.9 |
| 20260508012509 | 6 | 274 | 3.2 | 4.8 | 0.00 | 0.00 | 0.00 | 68 | 1011.9 |
| 20260508012009 | 6 | 275 | 1.6 | 4.8 | 0.00 | 0.00 | 0.00 | 65 | 1011.8 |
| 20260508011509 | 6 | 275 | 3.2 | 4.8 | 0.00 | 0.00 | 0.00 | 61 | 1011.8 |
| 20260508011009 | 7 | 275 | 3.2 | 4.8 | 0.00 | 0.00 | 0.00 | 62 | 1011.7 |
| 20260508010508 | 7 | 275 | 3.2 | 4.8 | 0.00 | 0.00 | 0.00 | 60 | 1011.8 |
| 20260508005509 | 7 | 279 | 3.2 | 12.9 | 0.00 | 0.00 | 0.00 | 58 | 1011.6 |
| 20260508005009 | 7 | 277 | 3.2 | 6.4 | 0.00 | 0.00 | 0.00 | 57 | 1011.6 |
| 20260508004509 | 7 | 277 | 3.2 | 9.7 | 0.00 | 0.00 | 0.00 | 55 | 1011.7 |
| 20260508004008 | 8 | 280 | 4.8 | 11.3 | 0.00 | 0.00 | 0.00 | 53 | 1011.6 |
| 20260508003509 | 8 | 285 | 6.4 | 12.9 | 0.00 | 0.00 | 0.00 | 54 | 1011.6 |
| 20260508003009 | 9 | 283 | 8.0 | 22.5 | 0.00 | 0.00 | 0.00 | 52 | 1011.6 |
| 20260508002009 | 9 | 271 | 6.4 | 22.5 | 0.00 | 0.00 | 0.00 | 50 | 1011.5 |
| 20260508001009 | 10 | 279 | 8.0 | 20.9 | 0.00 | 0.00 | 0.00 | 49 | 1011.4 |
| 20260508000509 | 10 | 289 | 8.0 | 19.3 | 0.00 | 0.00 | 0.00 | 48 | 1011.3 |
| 20260508000009 | 10 | 290 | 8.0 | 25.7 | 0.00 | 0.00 | 0.00 | 47 | 1011.2 |
| 20260507235509 | 10 | 289 | 11.3 | 25.7 | 0.00 | 0.00 | 0.00 | 47 | 1011.2 |
| 20260507235008 | 10 | 292 | 11.3 | 25.7 | 0.00 | 0.00 | 0.00 | 46 | 1011.2 |
| 20260507234509 | 10 | 287 | 11.3 | 24.1 | 0.00 | 0.00 | 0.00 | 45 | 1011.2 |
| 20260507234008 | 10 | 281 | 12.9 | 30.6 | 0.00 | 0.00 | 0.00 | 47 | 1011.2 |
| 20260507233509 | 10 | 284 | 14.5 | 30.6 | 0.00 | 0.00 | 0.00 | 45 | 1011.2 |
| 20260507233008 | 10 | 290 | 12.9 | 25.7 | 0.00 | 0.00 | 0.00 | 45 | 1011.2 |
| 20260507232509 | 10 | 293 | 11.3 | 20.9 | 0.00 | 0.00 | 0.00 | 45 | 1011.2 |
| 20260507232008 | 11 | 290 | 12.9 | 27.4 | 0.00 | 0.00 | 0.00 | 45 | 1011.2 |
| 20260507231509 | 11 | 283 | 17.7 | 35.4 | 0.00 | 0.00 | 0.00 | 44 | 1011.1 |
| 20260507231008 | 11 | 283 | 19.3 | 35.4 | 0.00 | 0.00 | 0.00 | 43 | 1011.2 |
| 20260507230509 | 11 | 289 | 17.7 | 37.0 | 0.00 | 0.00 | 0.00 | 44 | 1011.2 |
| 20260507230009 | 11 | 288 | 14.5 | 37.0 | 0.00 | 0.00 | 0.00 | 44 | 1011.2 |
| 20260507225009 | 11 | 278 | 16.1 | 33.8 | 0.00 | 0.00 | 0.00 | 46 | 1011.2 |
| 20260507224508 | 11 | 275 | 16.1 | 33.8 | 0.00 | 0.00 | 0.00 | 45 | 1011.1 |
| 20260507224009 | 11 | 273 | 19.3 | 43.5 | 0.00 | 0.00 | 0.00 | 46 | 1011.2 |
| 20260507223508 | 11 | 279 | 17.7 | 43.5 | 0.00 | 0.00 | 0.00 | 43 | 1011.3 |
| 20260507223009 | 11 | 284 | 14.5 | 35.4 | 0.00 | 0.00 | 0.00 | 50 | 1011.1 |
| 20260507222508 | 11 | 273 | 16.1 | 35.4 | 0.00 | 0.00 | 0.00 | 49 | 1011.1 |
| 20260507222009 | 11 | 264 | 14.5 | 30.6 | 0.00 | 0.00 | 0.00 | 52 | 1011.1 |
| 20260507221508 | 11 | 267 | 17.7 | 32.2 | 0.00 | 0.00 | 0.00 | 53 | 1011.2 |
| 20260507221009 | 11 | 272 | 16.1 | 32.2 | 0.00 | 0.00 | 0.00 | 51 | 1011.2 |
| 20260507220508 | 11 | 285 | 12.9 | 32.2 | 0.00 | 0.00 | 0.00 | 53 | 1011.2 |
| 20260507220009 | 11 | 285 | 12.9 | 25.7 | 0.00 | 0.00 | 0.00 | 55 | 1011.2 |
| 20260507215508 | 11 | 270 | 16.1 | 32.2 | 0.00 | 0.00 | 0.00 | 57 | 1011.1 |
| 20260507215009 | 11 | 268 | 19.3 | 32.2 | 0.00 | 0.00 | 0.00 | 54 | 1011.0 |
| 20260507214509 | 11 | 270 | 17.7 | 35.4 | 0.00 | 0.00 | 0.00 | 53 | 1011.0 |
| 20260507214008 | 12 | 279 | 9.7 | 35.4 | 0.00 | 0.00 | 0.00 | 54 | 1010.9 |
| 20260507213509 | 11 | 281 | 6.4 | 17.7 | 0.00 | 0.00 | 0.00 | 56 | 1010.9 |
| 20260507213008 | 11 | 284 | 9.7 | 29.0 | 0.00 | 0.00 | 0.00 | 59 | 1010.9 |
| 20260507211508 | 11 | 278 | 12.9 | 27.4 | 0.00 | 0.00 | 0.00 | 57 | 1010.9 |
| 20260507205509 | 10 | 292 | 14.5 | 29.0 | 0.00 | 0.00 | 0.00 | 57 | 1010.7 |
| 20260507205008 | 11 | 292 | 14.5 | 27.4 | 0.00 | 0.00 | 0.00 | 56 | 1010.6 |
| 20260507204509 | 11 | 302 | 9.7 | 27.4 | 0.00 | 0.00 | 0.00 | 56 | 1010.5 |
| 20260507204008 | 11 | 308 | 6.4 | 22.5 | 0.00 | 0.00 | 0.00 | 56 | 1010.4 |
| 20260507203508 | 11 | 302 | 11.3 | 24.1 | 0.00 | 0.00 | 0.00 | 56 | 1010.4 |
| 20260507203009 | 11 | 296 | 9.7 | 24.1 | 0.00 | 0.00 | 0.00 | 56 | 1010.3 |
| 20260507202508 | 11 | 298 | 11.3 | 25.7 | 0.00 | 0.00 | 0.00 | 56 | 1010.4 |
| 20260507201508 | 11 | 292 | 9.7 | 20.9 | 0.00 | 0.00 | 0.00 | 54 | 1010.3 |
| 20260507200508 | 11 | 287 | 14.5 | 27.4 | 0.00 | 0.00 | 0.00 | 52 | 1010.3 |
| 20260507200008 | 12 | 275 | 12.9 | 24.1 | 0.00 | 0.00 | 0.00 | 50 | 1010.3 |
| 20260507195509 | 13 | 256 | 12.9 | 27.4 | 0.00 | 0.00 | 0.00 | 50 | 1010.3 |
| 20260507195008 | 12 | 272 | 12.9 | 32.2 | 0.00 | 0.00 | 0.00 | 50 | 1010.4 |
| 20260507194510 | 13 | 307 | 9.7 | 32.2 | 0.00 | 0.00 | 0.00 | 50 | 1010.5 |
| 20260507194008 | 12 | 313 | 9.7 | 25.7 | 0.00 | 0.00 | 0.00 | 51 | 1010.5 |
| 20260507193508 | 11 | 294 | 11.3 | 24.1 | 0.00 | 0.00 | 0.00 | 50 | 1010.6 |
| 20260507192508 | 12 | 281 | 11.3 | 22.5 | 0.00 | 0.00 | 0.00 | 48 | 1010.7 |
| 20260507192009 | 12 | 286 | 11.3 | 22.5 | 0.00 | 0.00 | 0.00 | 49 | 1010.8 |
| 20260507191508 | 13 | 288 | 11.3 | 27.4 | 0.00 | 0.00 | 0.00 | 51 | 1010.8 |
| 20260507191008 | 13 | 278 | 12.9 | 27.4 | 0.00 | 0.00 | 0.00 | 49 | 1010.8 |
| 20260507190508 | 12 | 277 | 12.9 | 27.4 | 0.00 | 0.00 | 0.00 | 52 | 1010.8 |
| 20260507185509 | 12 | 300 | 11.3 | 24.1 | 0.00 | 0.00 | 0.00 | 51 | 1010.6 |
| 20260507185008 | 12 | 305 | 11.3 | 24.1 | 0.00 | 0.00 | 0.00 | 48 | 1010.7 |
| 20260507184009 | 11 | 282 | 9.7 | 27.4 | 0.00 | 0.00 | 0.00 | 50 | 1010.7 |
| 20260507183508 | 12 | 297 | 11.3 | 27.4 | 0.00 | 0.00 | 0.00 | 54 | 1010.7 |
| 20260507183008 | 12 | 301 | 11.3 | 27.4 | 0.00 | 0.00 | 0.00 | 51 | 1010.7 |
| 20260507182508 | 12 | 298 | 12.9 | 25.7 | 0.00 | 0.00 | 0.00 | 55 | 1010.6 |
| 20260507182008 | 12 | 289 | 14.5 | 27.4 | 0.00 | 0.00 | 0.00 | 51 | 1010.8 |
| 20260507181509 | 11 | 288 | 14.5 | 32.2 | 0.00 | 0.00 | 0.00 | 53 | 1010.7 |
| 20260507180509 | 11 | 303 | 11.3 | 30.6 | 0.00 | 0.00 | 0.00 | 55 | 1010.7 |
| 20260507180008 | 12 | 295 | 14.5 | 30.6 | 0.00 | 0.00 | 0.00 | 53 | 1010.8 |
| 20260507175508 | 12 | 306 | 14.5 | 25.7 | 0.00 | 0.00 | 0.00 | 54 | 1010.7 |
| 20260507174508 | 13 | 292 | 11.3 | 24.1 | 0.00 | 0.00 | 0.00 | 54 | 1010.6 |
| 20260507174008 | 12 | 284 | 11.3 | 24.1 | 0.00 | 0.00 | 0.00 | 54 | 1010.7 |
| 20260507173508 | 12 | 282 | 9.7 | 24.1 | 0.00 | 0.00 | 0.00 | 56 | 1010.7 |
| 20260507173009 | 12 | 283 | 9.7 | 27.4 | 0.00 | 0.00 | 0.00 | 55 | 1010.7 |
| 20260507172508 | 12 | 273 | 9.7 | 27.4 | 0.00 | 0.00 | 0.00 | 51 | 1010.6 |
| 20260507172008 | 12 | 265 | 12.9 | 24.1 | 0.00 | 0.00 | 0.00 | 50 | 1010.7 |
| 20260507171508 | 13 | 263 | 14.5 | 24.1 | 0.00 | 0.00 | 0.00 | 46 | 1010.6 |
| 20260507171009 | 13 | 267 | 14.5 | 29.0 | 0.00 | 0.00 | 0.00 | 53 | 1010.7 |
| 20260507170508 | 12 | 268 | 12.9 | 29.0 | 0.00 | 0.00 | 0.00 | 49 | 1010.7 |
| 20260507170009 | 12 | 274 | 9.7 | 22.5 | 0.00 | 0.00 | 0.00 | 50 | 1010.7 |
| 20260507165508 | 13 | 274 | 9.7 | 25.7 | 0.00 | 0.00 | 0.00 | 52 | 1010.7 |
| 20260507165008 | 12 | 269 | 12.9 | 30.6 | 0.00 | 0.00 | 0.00 | 47 | 1010.8 |
| 20260507164508 | 13 | 271 | 11.3 | 30.6 | 0.00 | 0.00 | 0.00 | 45 | 1010.7 |
| 20260507163508 | 13 | 246 | 14.5 | 29.0 | 0.00 | 0.00 | 0.00 | 44 | 1010.8 |
| 20260507163008 | 13 | 247 | 12.9 | 29.0 | 0.00 | 0.00 | 0.00 | 43 | 1010.8 |
| 20260507162509 | 12 | 258 | 9.7 | 22.5 | 0.00 | 0.00 | 0.00 | 44 | 1010.7 |
| 20260507162016 | 12 | 285 | 4.8 | 16.1 | 0.00 | 0.00 | 0.00 | 46 | 1010.8 |
| 20260507161509 | 11 | 277 | 8.0 | 20.9 | 0.00 | 0.00 | 0.00 | 51 | 1010.8 |
| 20260507161008 | 11 | 270 | 11.3 | 20.9 | 0.00 | 0.00 | 0.00 | 52 | 1010.9 |
| 20260507160508 | 11 | 259 | 12.9 | 20.9 | 0.00 | 0.00 | 0.00 | 50 | 1010.9 |
| 20260507160008 | 11 | 256 | 11.3 | 22.5 | 0.00 | 0.00 | 0.00 | 48 | 1011.0 |
| 20260507155508 | 12 | 260 | 8.0 | 22.5 | 0.00 | 0.00 | 0.00 | 47 | 1011.0 |
| 20260507155008 | 12 | 272 | 6.4 | 20.9 | 0.00 | 0.00 | 0.00 | 51 | 1011.1 |
| 20260507154508 | 12 | 269 | 6.4 | 16.1 | 0.00 | 0.00 | 0.00 | 53 | 1011.2 |
| 20260507154010 | 11 | 266 | 6.4 | 16.1 | 0.00 | 0.00 | 0.00 | 52 | 1011.2 |
| 20260507153508 | 12 | 277 | 8.0 | 19.3 | 0.00 | 0.00 | 0.00 | 53 | 1011.3 |
| 20260507153008 | 12 | 258 | 6.4 | 19.3 | 0.00 | 0.00 | 0.00 | 47 | 1011.3 |
| 20260507152508 | 12 | 242 | 8.0 | 19.3 | 0.00 | 0.00 | 0.00 | 48 | 1011.2 |
| 20260507152009 | 12 | 258 | 9.7 | 22.5 | 0.00 | 0.00 | 0.00 | 55 | 1011.3 |
| 20260507151008 | 11 | 271 | 8.0 | 22.5 | 0.00 | 0.00 | 0.00 | 50 | 1011.2 |
| 20260507150508 | 11 | 281 | 11.3 | 22.5 | 0.00 | 0.00 | 0.00 | 48 | 1011.4 |
| 20260507150008 | 11 | 273 | 9.7 | 20.9 | 0.00 | 0.00 | 0.00 | 50 | 1011.4 |
| 20260507145508 | 12 | 269 | 9.7 | 20.9 | 0.00 | 0.00 | 0.00 | 47 | 1011.3 |
| 20260507145008 | 12 | 280 | 6.4 | 20.9 | 0.00 | 0.00 | 0.00 | 48 | 1011.3 |
| 20260507144508 | 12 | 305 | 6.4 | 17.7 | 0.00 | 0.00 | 0.00 | 58 | 1011.4 |
| 20260507144008 | 11 | 311 | 6.4 | 17.7 | 0.00 | 0.00 | 0.00 | 51 | 1011.4 |
| 20260507143508 | 11 | 320 | 4.8 | 14.5 | 0.00 | 0.00 | 0.00 | 53 | 1011.4 |
| 20260507143008 | 11 | 298 | 8.0 | 17.7 | 0.00 | 0.00 | 0.00 | 55 | 1011.5 |
| 20260507142008 | 12 | 293 | 6.4 | 16.1 | 0.00 | 0.00 | 0.00 | 55 | 1011.5 |
| 20260507141508 | 11 | 295 | 4.8 | 12.9 | 0.00 | 0.00 | 0.00 | 56 | 1011.6 |
| 20260507141008 | 11 | 272 | 8.0 | 17.7 | 0.00 | 0.00 | 0.00 | 58 | 1011.7 |
| 20260507140508 | 11 | 270 | 6.4 | 17.7 | 0.00 | 0.00 | 0.00 | 54 | 1011.7 |
| 20260507140008 | 11 | 287 | 4.8 | 16.1 | 0.00 | 0.00 | 0.00 | 59 | 1011.7 |
| 20260507135508 | 11 | 289 | 8.0 | 20.9 | 0.00 | 0.00 | 0.00 | 62 | 1011.8 |
| 20260507135008 | 11 | 292 | 6.4 | 20.9 | 0.00 | 0.00 | 0.00 | 57 | 1011.8 |
| 20260507134508 | 11 | 283 | 6.4 | 16.1 | 0.00 | 0.00 | 0.00 | 57 | 1011.9 |
| 20260507134008 | 10 | 287 | 6.4 | 16.1 | 0.00 | 0.00 | 0.00 | 64 | 1012.0 |
| 20260507133508 | 10 | 285 | 4.8 | 14.5 | 0.00 | 0.00 | 0.00 | 67 | 1012.0 |
| 20260507133009 | 10 | 277 | 6.4 | 14.5 | 0.00 | 0.00 | 0.00 | 67 | 1012.0 |
| 20260507132009 | 10 | 287 | 4.8 | 14.5 | 0.00 | 0.00 | 0.00 | 71 | 1012.1 |
| 20260507131509 | 10 | 294 | 4.8 | 14.5 | 0.00 | 0.00 | 0.00 | 69 | 1012.2 |
| 20260507131008 | 10 | 285 | 6.4 | 19.3 | 0.00 | 0.00 | 0.00 | 73 | 1012.1 |
| 20260507130508 | 10 | 284 | 8.0 | 19.3 | 0.00 | 0.00 | 0.00 | 69 | 1012.1 |
| 20260507130009 | 10 | 279 | 6.4 | 14.5 | 0.00 | 0.00 | 0.00 | 70 | 1011.9 |
| 20260507125508 | 10 | 266 | 6.4 | 14.5 | 0.00 | 0.00 | 0.00 | 68 | 1011.9 |
| 20260507125008 | 9 | 257 | 3.2 | 9.7 | 0.00 | 0.00 | 0.00 | 70 | 1011.8 |
| 20260507124508 | 9 | 232 | 3.2 | 12.9 | 0.00 | 0.00 | 0.00 | 73 | 1011.9 |
| 20260507124008 | 9 | 237 | 6.4 | 12.9 | 0.00 | 0.00 | 0.00 | 72 | 1011.8 |
| 20260507123508 | 8 | 241 | 4.8 | 12.9 | 0.00 | 0.00 | 0.00 | 73 | 1011.9 |
| 20260507123008 | 8 | 220 | 4.8 | 9.7 | 0.00 | 0.00 | 0.00 | 71 | 1011.9 |
| 20260507122508 | 8 | 202 | 4.8 | 9.7 | 0.00 | 0.00 | 0.00 | 73 | 1011.8 |
| 20260507122008 | 8 | 200 | 4.8 | 11.3 | 0.00 | 0.00 | 0.00 | 76 | 1011.8 |
| 20260507121508 | 7 | 212 | 4.8 | 11.3 | 0.00 | 0.00 | 0.00 | 79 | 1011.8 |
| 20260507121008 | 7 | 220 | 3.2 | 8.0 | 0.00 | 0.00 | 0.00 | 81 | 1012.0 |
| 20260507120008 | 6 | 214 | 3.2 | 9.7 | 0.00 | 0.00 | 0.00 | 86 | 1012.0 |
| 20260507115507 | 6 | 214 | 3.2 | 9.7 | 0.00 | 0.00 | 0.00 | 88 | 1012.0 |
| 20260507114008 | 4 | 215 | 1.6 | 6.4 | 0.00 | 0.00 | 0.00 | 95 | 1012.0 |
| 20260507113508 | 4 | 216 | 1.6 | 6.4 | 0.00 | 0.00 | 0.00 | 95 | 1012.0 |
| 20260507113008 | 3 | 216 | 1.6 | 4.8 | 0.00 | 0.00 | 0.00 | 96 | 1012.0 |
| 20260507112508 | 3 | 216 | 1.6 | 4.8 | 0.00 | 0.00 | 0.00 | 95 | 1012.0 |
| 20260507112008 | 3 | 216 | 1.6 | 4.8 | 0.00 | 0.00 | 0.00 | 96 | 1011.9 |
| 20260507111008 | 3 | 216 | 1.6 | 6.4 | 0.00 | 0.00 | 0.00 | 96 | 1011.9 |
| 20260507110507 | 3 | 216 | 1.6 | 4.8 | 0.00 | 0.00 | 0.00 | 96 | 1011.8 |
| 20260507110009 | 3 | 215 | 0.0 | 3.2 | 0.00 | 0.00 | 0.00 | 96 | 1011.8 |
| 20260507105008 | 2 | 0 | 0.0 | 0.0 | 0.00 | 0.00 | 0.00 | 95 | 1011.7 |
| 20260507104508 | 2 | 216 | 0.0 | 3.2 | 0.00 | 0.00 | 0.00 | 95 | 1011.7 |
| 20260507103507 | 2 | 216 | 1.6 | 4.8 | 0.00 | 0.00 | 0.00 | 95 | 1011.6 |
| 20260507102508 | 2 | 216 | 1.6 | 4.8 | 0.00 | 0.00 | 0.00 | 95 | 1011.5 |
| 20260507101508 | 3 | 214 | 1.6 | 6.4 | 0.00 | 0.00 | 0.00 | 95 | 1011.6 |
| 20260507100508 | 3 | 210 | 1.6 | 6.4 | 0.00 | 0.03 | 0.00 | 95 | 1011.4 |
| 20260507100008 | 3 | 210 | 1.6 | 6.4 | 0.00 | 0.03 | 0.00 | 95 | 1011.4 |
| 20260507095007 | 3 | 210 | 1.6 | 6.4 | 0.00 | 0.03 | 0.00 | 95 | 1011.4 |
| 20260507094508 | 3 | 205 | 1.6 | 6.4 | 0.00 | 0.05 | 0.00 | 95 | 1011.4 |
| 20260507094008 | 3 | 201 | 1.6 | 4.8 | 0.00 | 0.08 | 0.00 | 95 | 1011.4 |
| 20260507093508 | 3 | 201 | 0.0 | 3.2 | 0.00 | 0.08 | 0.00 | 95 | 1011.5 |
| 20260507093008 | 3 | 200 | 1.6 | 4.8 | 0.00 | 0.10 | 0.00 | 95 | 1011.5 |
| 20260507091508 | 2 | 200 | 1.6 | 8.0 | 0.00 | 0.15 | 0.00 | 96 | 1011.6 |
| 20260507091008 | 2 | 200 | 3.2 | 8.0 | 0.00 | 0.15 | 0.00 | 95 | 1011.5 |
| 20260507090509 | 2 | 199 | 3.2 | 6.4 | 0.00 | 0.15 | 0.00 | 96 | 1011.6 |
| 20260507090007 | 2 | 197 | 1.6 | 6.4 | 0.00 | 0.18 | 0.00 | 95 | 1011.6 |
| 20260507085508 | 2 | 195 | 1.6 | 4.8 | 0.00 | 0.18 | 0.00 | 95 | 1011.7 |
| 20260507085008 | 2 | 194 | 1.6 | 6.4 | 0.00 | 0.18 | 0.00 | 95 | 1011.6 |
| 20260507084508 | 1 | 192 | 3.2 | 8.0 | 0.00 | 0.18 | 0.00 | 95 | 1011.6 |
| 20260507084008 | 1 | 190 | 3.2 | 8.0 | 0.00 | 0.18 | 0.00 | 95 | 1011.6 |
| 20260507083508 | 1 | 188 | 1.6 | 6.4 | 0.00 | 0.18 | 0.00 | 95 | 1011.6 |
| 20260507083008 | 1 | 188 | 1.6 | 6.4 | 0.00 | 0.20 | 0.00 | 95 | 1011.7 |
| 20260507082507 | 1 | 188 | 1.6 | 4.8 | 0.00 | 0.23 | 0.00 | 95 | 1011.8 |
| 20260507082008 | 1 | 188 | 1.6 | 6.4 | 0.00 | 0.23 | 0.00 | 95 | 1011.7 |
| 20260507081008 | 1 | 187 | 1.6 | 11.3 | 0.00 | 0.25 | 0.00 | 95 | 1011.8 |
| 20260507080007 | 1 | 186 | 3.2 | 6.4 | 0.00 | 0.28 | 0.00 | 95 | 1011.8 |
| 20260507075508 | 1 | 184 | 1.6 | 6.4 | 0.00 | 0.30 | 0.00 | 94 | 1011.8 |
| 20260507075008 | 1 | 184 | 1.6 | 6.4 | 0.00 | 0.33 | 0.00 | 94 | 1011.7 |
| 20260507074509 | 1 | 184 | 0.0 | 4.8 | 0.00 | 0.33 | 0.00 | 94 | 1011.8 |
| 20260507073507 | 1 | 0 | 0.0 | 0.0 | 0.00 | 0.38 | 0.00 | 94 | 1011.8 |
| 20260507073008 | 1 | 184 | 0.0 | 1.6 | 0.00 | 0.41 | 0.00 | 94 | 1011.8 |
| 20260507072508 | 1 | 184 | 0.0 | 1.6 | 0.00 | 0.43 | 0.00 | 94 | 1011.8 |
| 20260507072008 | 1 | 0 | 0.0 | 0.0 | 0.00 | 0.46 | 0.00 | 94 | 1011.8 |
| 20260507071508 | 1 | 0 | 0.0 | 0.0 | 0.00 | 0.48 | 0.00 | 94 | 1011.8 |
| 20260507071008 | 1 | 0 | 0.0 | 0.0 | 0.00 | 0.48 | 0.00 | 93 | 1011.9 |
| 20260507070508 | 2 | 0 | 0.0 | 0.0 | 0.00 | 0.48 | 0.00 | 93 | 1011.9 |
| 20260507070012 | 2 | 184 | 0.0 | 3.2 | 0.00 | 0.51 | 0.00 | 93 | 1011.9 |
| 20260507065508 | 2 | 184 | 0.0 | 3.2 | 0.00 | 0.51 | 0.00 | 93 | 1012.0 |
| 20260507065007 | 2 | 184 | 0.0 | 1.6 | 0.00 | 0.51 | 0.00 | 93 | 1012.0 |
| 20260507064508 | 2 | 184 | 0.0 | 1.6 | 0.00 | 0.53 | 0.00 | 93 | 1012.0 |
| 20260507063008 | 2 | 183 | 0.0 | 6.4 | 0.00 | 0.58 | 0.00 | 92 | 1012.1 |
| 20260507062508 | 2 | 174 | 1.6 | 6.4 | 0.00 | 0.58 | 0.00 | 92 | 1012.2 |
| 20260507062008 | 2 | 156 | 1.6 | 6.4 | 0.00 | 0.61 | 0.00 | 92 | 1012.2 |
| 20260507061508 | 2 | 145 | 1.6 | 4.8 | 0.00 | 0.64 | 0.00 | 91 | 1012.2 |
| 20260507061008 | 2 | 145 | 0.0 | 4.8 | 0.00 | 0.66 | 0.00 | 91 | 1012.3 |
| 20260507060508 | 2 | 144 | 0.0 | 1.6 | 0.00 | 0.69 | 0.00 | 91 | 1012.3 |
| 20260507060007 | 2 | 144 | 0.0 | 1.6 | 0.00 | 0.71 | 0.00 | 90 | 1012.5 |
| 20260507055508 | 3 | 144 | 0.0 | 3.2 | 0.00 | 0.74 | 0.00 | 90 | 1012.5 |
| 20260507054508 | 3 | 144 | 0.0 | 4.8 | 0.00 | 0.76 | 0.00 | 89 | 1012.5 |
| 20260507054007 | 3 | 144 | 0.0 | 1.6 | 0.00 | 0.76 | 0.00 | 89 | 1012.5 |
| 20260507053508 | 3 | 144 | 0.0 | 1.6 | 0.00 | 0.79 | 0.00 | 88 | 1012.5 |
| 20260507053008 | 3 | 144 | 0.0 | 1.6 | 0.00 | 0.79 | 0.00 | 88 | 1012.6 |
| 20260507052507 | 4 | 144 | 0.0 | 1.6 | 0.00 | 0.79 | 0.00 | 87 | 1012.6 |
| 20260507051508 | 5 | 143 | 0.0 | 3.2 | 0.00 | 0.81 | 0.00 | 85 | 1012.7 |
| 20260507050508 | 5 | 143 | 0.0 | 4.8 | 0.00 | 0.84 | 0.00 | 84 | 1012.7 |
| 20260507050008 | 5 | 136 | 1.6 | 6.4 | 0.00 | 0.84 | 0.00 | 84 | 1012.7 |
| 20260507045508 | 5 | 123 | 1.6 | 6.4 | 0.00 | 0.84 | 0.00 | 83 | 1012.8 |
| 20260507045008 | 5 | 118 | 1.6 | 6.4 | 0.00 | 0.84 | 0.00 | 83 | 1012.8 |
| 20260507044507 | 5 | 117 | 1.6 | 6.4 | 0.00 | 0.84 | 0.00 | 84 | 1012.7 |
| 20260507044008 | 5 | 114 | 1.6 | 6.4 | 0.00 | 0.86 | 0.00 | 84 | 1012.7 |
| 20260507043507 | 5 | 111 | 1.6 | 4.8 | 0.00 | 0.86 | 0.00 | 86 | 1012.7 |
| 20260507043008 | 5 | 111 | 1.6 | 4.8 | 0.00 | 0.89 | 0.00 | 87 | 1012.8 |
| 20260507042508 | 5 | 109 | 1.6 | 4.8 | 0.00 | 0.89 | 0.00 | 86 | 1012.8 |
| 20260507042007 | 5 | 107 | 3.2 | 6.4 | 0.00 | 0.89 | 0.00 | 87 | 1013.0 |
| 20260507041508 | 5 | 105 | 1.6 | 6.4 | 0.00 | 0.91 | 0.00 | 88 | 1013.0 |
| 20260507040508 | 5 | 103 | 1.6 | 4.8 | 0.00 | 0.94 | 0.00 | 87 | 1013.2 |